When you browse on this site, cookies collect data to enhance your experience and personalize the content and advertising you see.
Visit our Privacy Policy to learn more. By continuing to use the site, you agree to this use of cookies and data.
  • In Lithuania
  • List of Countries
  • For 7 days
  • Water Temperature
  • Satellite Maps
  • Weather Map
  • Weather Widgets
  • user-avatar
    Login

    Hourly Weather Nizhnyaya Ternovka

    Today, 14 December, Friday

    Time Temperature Precipitation Wind Pressure Humidity
    00:00 +1°C° 0 mm 2 mps 748 mmHg 87%
    01:00 +1°C° 0 mm 2 mps 748 mmHg 87%
    02:00 +1°C° 0 mm 2 mps 748 mmHg 88%
    03:00 -1°C° 0 mm 2 mps 747 mmHg 88%
    04:00 +1°C° 0 mm 2 mps 747 mmHg 87%
    05:00 +1°C° 0 mm 2 mps 747 mmHg 86%
    06:00 +1°C° 0 mm 2 mps 747 mmHg 86%
    07:00 0°C° 0 mm 3 mps 747 mmHg 85%
    08:00 +1°C° 0 mm 3 mps 747 mmHg 83%
    09:00 +1°C° 0 mm 3 mps 747 mmHg 82%
    10:00 +1°C° 0 mm 4 mps 747 mmHg 76%
    11:00 +4°C° 0 mm 4 mps 747 mmHg 70%
    12:00 +5°C° 0 mm 5 mps 747 mmHg 64%
    13:00 +5°C° 0 mm 5 mps 748 mmHg 63%
    14:00 +5°C° 0 mm 4 mps 748 mmHg 63%
    15:00 +5°C° 0 mm 4 mps 748 mmHg 63%
    16:00 +4°C° 0 mm 3 mps 748 mmHg 68%
    17:00 +3°C° 0 mm 3 mps 748 mmHg 73%
    18:00 +3°C° 0 mm 2 mps 749 mmHg 78%
    19:00 +3°C° 0 mm 2 mps 749 mmHg 79%
    20:00 +3°C° 0 mm 2 mps 749 mmHg 81%
    21:00 +3°C° 0 mm 2 mps 749 mmHg 82%
    22:00 +2°C° 0 mm 3 mps 749 mmHg 82%
    23:00 +2°C° 0 mm 3 mps 749 mmHg 83%

    Tomorrow, 15 December, Saturday

    Time Temperature Precipitation Wind Pressure Humidity
    00:00 +2°C° 0 mm 3 mps 749 mmHg 83%
    01:00 +1°C° 0 mm 3 mps 749 mmHg 82%
    02:00 +1°C° 0 mm 3 mps 749 mmHg 81%
    03:00 +1°C° 0 mm 3 mps 749 mmHg 81%
    04:00 +1°C° 0 mm 3 mps 749 mmHg 80%
    05:00 +1°C° 0 mm 3 mps 749 mmHg 80%
    06:00 +2°C° 0 mm 2 mps 749 mmHg 79%
    07:00 +2°C° 0 mm 2 mps 750 mmHg 78%
    08:00 +3°C° 0 mm 2 mps 750 mmHg 76%
    09:00 +3°C° 0 mm 2 mps 750 mmHg 75%
    10:00 +4°C° 0 mm 2 mps 750 mmHg 72%
    11:00 +4°C° 0 mm 2 mps 750 mmHg 69%
    12:00 +5°C° 0 mm 2 mps 749 mmHg 66%
    13:00 +5°C° 0.2 mm 2 mps 749 mmHg 68%
    14:00 +5°C° 0.2 mm 2 mps 749 mmHg 71%
    15:00 +5°C° 0.2 mm 2 mps 749 mmHg 73%
    16:00 +5°C° 0.4 mm 1 mps 749 mmHg 77%
    17:00 +5°C° 0.4 mm 1 mps 750 mmHg 80%
    18:00 +4°C° 0.4 mm 1 mps 750 mmHg 84%
    19:00 +4°C° 0.5 mm 1 mps 750 mmHg 85%
    20:00 +4°C° 0.5 mm 1 mps 750 mmHg 85%
    21:00 +4°C° 0.5 mm 1 mps 750 mmHg 86%
    22:00 +3°C° 0.4 mm 1 mps 750 mmHg 87%
    23:00 +2°C° 0.4 mm 2 mps 750 mmHg 88%

    Day after tomorrow, 16 December, Sunday

    Time Temperature Precipitation Wind Pressure Humidity
    00:00 +2°C° 0.4 mm 2 mps 751 mmHg 89%
    01:00 +1°C° 0.1 mm 2 mps 751 mmHg 90%
    02:00 +1°C° 0.1 mm 2 mps 751 mmHg 91%
    03:00 -1°C° 0.1 mm 2 mps 751 mmHg 92%
    04:00 -1°C° 0 mm 2 mps 751 mmHg 91%
    05:00 -1°C° 0 mm 2 mps 751 mmHg 90%
    06:00 -2°C° 0 mm 2 mps 752 mmHg 88%
    07:00 -2°C° 0 mm 3 mps 752 mmHg 87%
    08:00 -2°C° 0 mm 3 mps 752 mmHg 86%
    09:00 -2°C° 0 mm 3 mps 753 mmHg 84%
    10:00 -1°C° 0 mm 3 mps 752 mmHg 82%
    11:00 -1°C° 0 mm 3 mps 752 mmHg 79%
    12:00 0°C° 0 mm 3 mps 752 mmHg 77%
    13:00 0°C° 0 mm 3 mps 752 mmHg 76%
    14:00 -1°C° 0 mm 4 mps 752 mmHg 76%
    15:00 -1°C° 0 mm 4 mps 752 mmHg 75%
    16:00 -2°C° 0 mm 4 mps 752 mmHg 77%
    17:00 -2°C° 0 mm 4 mps 752 mmHg 79%
    18:00 -4°C° 0 mm 5 mps 752 mmHg 80%
    19:00 -4°C° 0 mm 5 mps 752 mmHg 81%
    20:00 -4°C° 0 mm 5 mps 752 mmHg 81%
    21:00 -5°C° 0 mm 6 mps 752 mmHg 81%
    22:00 -5°C° 0 mm 6 mps 752 mmHg 81%
    23:00 -5°C° 0 mm 6 mps 752 mmHg 80%

    17 December, Monday

    Time Temperature Precipitation Wind Pressure Humidity
    00:00 -5°C° 0 mm 6 mps 752 mmHg 80%
    01:00 -5°C° 0 mm 6 mps 752 mmHg 80%
    02:00 -5°C° 0 mm 6 mps 752 mmHg 79%
    03:00 -5°C° 0 mm 6 mps 752 mmHg 79%
    04:00 -5°C° 0 mm 6 mps 752 mmHg 79%
    05:00 -5°C° 0 mm 6 mps 751 mmHg 79%
    06:00 -5°C° 0 mm 6 mps 751 mmHg 79%
    07:00 -5°C° 0 mm 6 mps 751 mmHg 78%
    08:00 -6°C° 0 mm 7 mps 751 mmHg 78%
    09:00 -6°C° 0 mm 7 mps 751 mmHg 77%
    10:00 -4°C° 0 mm 7 mps 751 mmHg 75%
    11:00 -4°C° 0 mm 7 mps 751 mmHg 74%
    12:00 -3°C° 0 mm 7 mps 750 mmHg 72%
    13:00 -3°C° 0 mm 7 mps 750 mmHg 72%
    14:00 -3°C° 0 mm 7 mps 750 mmHg 72%
    15:00 -3°C° 0 mm 7 mps 750 mmHg 72%
    16:00 -4°C° 0 mm 7 mps 750 mmHg 74%
    17:00 -4°C° 0 mm 7 mps 750 mmHg 76%
    18:00 -4°C° 0 mm 7 mps 750 mmHg 77%
    19:00 -4°C° 0 mm 7 mps 750 mmHg 78%
    20:00 -4°C° 0 mm 7 mps 750 mmHg 79%
    21:00 -4°C° 0 mm 7 mps 750 mmHg 80%
    22:00 -4°C° 0 mm 7 mps 750 mmHg 80%
    23:00 -4°C° 0 mm 7 mps 750 mmHg 80%

    18 December, Tuesday

    Time Temperature Precipitation Wind Pressure Humidity
    00:00 -4°C° 0 mm 7 mps 750 mmHg 81%
    01:00 -4°C° 0 mm 7 mps 750 mmHg 81%
    02:00 -4°C° 0 mm 6 mps 750 mmHg 82%
    03:00 -4°C° 0 mm 6 mps 750 mmHg 82%
    04:00 -4°C° 0 mm 6 mps 750 mmHg 83%
    05:00 -4°C° 0 mm 6 mps 750 mmHg 84%
    06:00 -4°C° 0 mm 6 mps 750 mmHg 84%
    07:00 -4°C° 0 mm 6 mps 750 mmHg 84%
    08:00 -4°C° 0 mm 6 mps 750 mmHg 84%
    09:00 -4°C° 0 mm 6 mps 750 mmHg 84%
    10:00 -4°C° 0 mm 6 mps 750 mmHg 83%
    11:00 -3°C° 0 mm 6 mps 750 mmHg 83%
    12:00 -3°C° 0 mm 6 mps 750 mmHg 82%
    13:00 -3°C° 0 mm 6 mps 750 mmHg 82%
    14:00 -3°C° 0 mm 6 mps 750 mmHg 83%
    15:00 -3°C° 0 mm 6 mps 750 mmHg 83%
    16:00 -4°C° 0 mm 6 mps 750 mmHg 84%
    17:00 -4°C° 0 mm 6 mps 750 mmHg 85%
    18:00 -4°C° 0 mm 6 mps 751 mmHg 86%
    19:00 -4°C° 0 mm 6 mps 751 mmHg 86%
    20:00 -4°C° 0 mm 5 mps 751 mmHg 86%
    21:00 -4°C° 0 mm 5 mps 751 mmHg 86%
    22:00 -4°C° 0 mm 5 mps 751 mmHg 87%
    23:00 -4°C° 0 mm 5 mps 751 mmHg 87%

    19 December, Wednesday

    Time Temperature Precipitation Wind Pressure Humidity
    00:00 -4°C° 0 mm 5 mps 751 mmHg 87%
    01:00 -4°C° 0 mm 5 mps 751 mmHg 87%
    02:00 -4°C° 0 mm 5 mps 751 mmHg 87%
    03:00 -4°C° 0 mm 5 mps 751 mmHg 88%
    04:00 -4°C° 0 mm 5 mps 751 mmHg 88%
    05:00 -4°C° 0 mm 5 mps 751 mmHg 88%
    06:00 -4°C° 0 mm 5 mps 751 mmHg 88%
    07:00 -4°C° 0 mm 5 mps 751 mmHg 88%
    08:00 -4°C° 0 mm 5 mps 751 mmHg 87%
    09:00 -4°C° 0 mm 5 mps 751 mmHg 86%
    10:00 -4°C° 0 mm 5 mps 751 mmHg 85%
    11:00 -2°C° 0 mm 5 mps 751 mmHg 84%
    12:00 -2°C° 0 mm 5 mps 751 mmHg 83%
    13:00 -2°C° 0 mm 5 mps 751 mmHg 83%
    14:00 -2°C° 0 mm 5 mps 751 mmHg 83%
    15:00 -2°C° 0 mm 5 mps 751 mmHg 83%
    16:00 -2°C° 0 mm 5 mps 751 mmHg 85%
    17:00 -2°C° 0 mm 5 mps 752 mmHg 86%
    18:00 -4°C° 0 mm 5 mps 752 mmHg 87%
    19:00 -4°C° 0 mm 5 mps 752 mmHg 87%
    20:00 -4°C° 0 mm 5 mps 752 mmHg 88%
    21:00 -4°C° 0 mm 5 mps 752 mmHg 88%
    22:00 -4°C° 0 mm 5 mps 752 mmHg 87%
    23:00 -4°C° 0 mm 5 mps 752 mmHg 87%
    Show more